Location: Alpha Ridge Park
(39.3209°N, 76.9128°W)
Time: 20:40:07
(UTC-04:00)

Transit 2A - Pass Details

Date: 30 May 2019
Orbit: 593 x 966 km, 66.7° (Epoch: 16 June)

Event Time Altitude Azimuth Distance (km) Brightness Sun altitude
Rises 05:51:52 0° 183° (S) 3,520 9.1 0.5°
Reaches altitude 10° 05:54:29 10° 175° (S) 2,622 8.6 1.0°
Maximum altitude 06:00:07 38° 109° (ESE) 1,422 8.0 1.9°
Drops below altitude 10° 06:05:56 10° 44° (NE) 2,709 10.4 2.9°
Sets 06:08:40 0° 37° (NE) 3,651 10.8 3.4°
